Location: Sevilla
(37.3933°N, 5.9839°W)
Time: 05:47:49
(UTC+02:00)

Transit 2A Rocket - Pass Details

Date: 28 June 2024
Orbit: 582 x 910 km, 66.7° (Epoch: 15 July)

Event Time Altitude Azimuth Distance (km) Brightness Sun altitude
Rises 07:28:48 0° 318° (NW) 3,542 8.3 3.2°
Reaches altitude 10° 07:31:45 10° 306° (NW) 2,599 7.5 3.7°
Maximum altitude 07:36:33 25° 254° (WSW) 1,738 6.4 4.6°
Drops below altitude 10° 07:41:15 10° 201° (SSW) 2,526 7.3 5.4°
Sets 07:44:05 0° 189° (S) 3,421 8.0 5.9°
